View from above orbital plane
|
View from above satellite
|
Ground track
|
The orbit data is extracted from the following two-line orbital elements,
1 40336U 14079A 21016.20094784 -.00000035 00000-0 32058-5 0 9993
2 40336 98.5409 91.9909 0001254 115.9748 244.1577 14.35423125320204
Epoch (UTC): | 16 January 2021 04:49:21 |
Eccentricity: | 0.0001254 |
inclination: | 98.5409° |
perigee height: | 773 km |
apogee height: | 774 km |
right ascension of ascending node: | 91.9909° |
argument of perigee: | 115.9748° |
revolutions per day: | 14.35423125 |
mean anomaly at epoch: | 244.1577° |
orbit number at epoch: | 32020 |
The dashed part of the orbit path shows where the satellite is in the earth's shadow,
|
|